Regional Weather Roundup
Issued by NWS

Home | Current Version | Previous Version | Text Only | Print | Product List | Glossary On
Versions: 1 2 3 4 5 6 7 8 9 10 11 12 13 14 15 16 17 18 19 20 21 22 23 24 25 26 27 28 29 30 31 32 33 34 35 36 37 38 39 40 41 42 43 44 45 46 47 48 49 50
000
ASUS43 KTOP 260908
RWRKS

WEATHER ROUNDUP FOR KANSAS
NATIONAL WEATHER SERVICE GOODLAND KS
400 AM CDT FRI MAY 26 2017

NOTE:  "FAIR" INDICATES FEW OR NO CLOUDS BELOW 12,000 FEET WITH NO
SIGNIFICANT WEATHER AND/OR OBSTRUCTIONS TO VISIBILITY.

KSZ001>006-013>018-027>032-041>047-261000-
NORTHWEST KANSAS

CITY           SKY/WX    TMP DP  RH WIND       PRES   REMARKS
GOODLAND       CLOUDY    55  51  86 NW14      29.82R
HAYS           CLEAR     56  53  90 NW8       29.72R
HILL CITY      PTCLDY    57  54  89 W6        29.71R
RUSSELL        CLEAR     58  56  93 NW10      29.68R
$$

KSZ061>065-074>080-084>089-261000-
SOUTHWEST KANSAS

CITY           SKY/WX    TMP DP  RH WIND       PRES   REMARKS
DODGE CITY     CLEAR     56  55  97 NW15G23   29.71R
ELKHART          N/A     55  42  61 NW10        N/A
GARDEN CITY    CLEAR     56  51  84 N12       29.76R
GREAT BEND     CLEAR     58  57  97 NW6       29.65R
LIBERAL        CLEAR     58  54  86 NW17      29.75R
PRATT          CLEAR     59  56  88 E5        29.63R
$$

KSZ066>073-081>083-090>101-261000-
SOUTHEAST KANSAS

CITY           SKY/WX    TMP DP  RH WIND       PRES   REMARKS
CHANUTE        PTCLDY    66  58  75 E9        29.62F
COFFEYVILLE    CLOUDY    64  64 100 VRB3      29.63R
HUTCHINSON     MOCLDY    62  59  90 E3        29.59R
MEDICINE LODGE   N/A     64  60  87 N10       29.59R
NEWTON         PTCLDY    65  60  84 E7        29.60R
PARSONS        MOCLDY    67  60  78 CALM      29.63F
WICHITA INTL   PTCLDY    67  61  81 NE9       29.57S
WICHITA JABRA  CLEAR     63  60  90 NE6       29.58R
WICHITA MCCONL CLEAR     66  59  79 E9        29.57S
WINFIELD       CLEAR     67  61  81 E7        29.58R
$$

KSZ007>012-019>026-033>040-048>060-102>105-261000-
NORTHEAST KANSAS

CITY           SKY/WX    TMP DP  RH WIND       PRES   REMARKS
CONCORDIA      MOCLDY    60  60 100 SW5       29.66R
EMPORIA        CLOUDY    65  61  87 SE15      29.57F
LAWRENCE       CLOUDY    65  61  87 SE13      29.57R
MANHATTAN      CLOUDY    61  60  97 CALM      29.61R
MARYSVILLE     MOCLDY    59  59 100 SE3       29.63R FOG
OLATHE IND     CLOUDY    64  59  83 S15G23    29.64F THUNDER
OLATHE EXE     CLOUDY    63  60  90 S20       29.63F THUNDER
SALINA         PTCLDY    66  61  84 N5        29.62R
TOPEKA BILLARD CLOUDY    65  62  90 S9        29.57R
TOPEKA FORBES  CLOUDY    66  61  84 SE9       29.57S
$$




USA.gov is the U.S. government's official web portal to all federal, state and local government web resources and services.